Location: Fredericksburg
(30.2750°N, 98.8720°W)
Time: 19:16:00
(UTC-05:00)

Amateur Radio Satellites - All Passes

Search period start: 28 July 2016 18:46
Search period end: 29 July 2016 18:46
Location: Fredericksburg, 30.2750°N, 98.8720°W

Satellite Date Start Highest point End Downlink Frequencies (MHz)
Time Altitude Azimuth
LilacSat-2 28 Jul 18:52:16 18:55:55 42° 75° (ENE) 18:59:36 437.200
NOAA 18 28 Jul 19:08:06 19:13:37 76° 75° (ENE) 19:19:09 137.9125
BEESAT 3 28 Jul 19:10:17 19:13:53 36° 301° (WNW) 19:17:32 437.485
BRITE-PL 28 Jul 19:11:49 19:15:52 50° 260° (W) 19:19:54 437.365/2234.400
PCSat 28 Jul 19:18:31 19:23:48 58° 111° (ESE) 19:29:07 145.827
BEESAT 2 28 Jul 19:19:22 19:23:14 59° 298° (WNW) 19:27:10 435.950
RS-15 28 Jul 19:25:58 19:34:08 21° 260° (W) 19:42:11 29.354- 29.394
HO-68 28 Jul 19:26:29 19:30:53 18° 62° (ENE) 19:35:17 435.675
SO-50 28 Jul 19:29:36 19:31:21 12° 253° (WSW) 19:33:04 436.795
Cubesat XI-IV 28 Jul 19:35:22 19:40:39 58° 259° (WSW) 19:45:57 437.490
PHONESAT 2.4 28 Jul 19:39:39 19:41:02 12° 0° (N) 19:42:24 2401.200-2431.200
DOVE 4 28 Jul 19:49:43 19:53:53 66° 76° (ENE) 19:58:18 437.250
CINEMA 3 28 Jul 19:50:38 19:53:32 17° 68° (ENE) 19:56:31 145.822/145.860
O/OREOS (USA 219) 28 Jul 19:52:50 19:54:45 13° 99° (E) 19:56:41 437.305
CUBESAT XI-V 28 Jul 19:58:28 20:01:18 16° 291° (WNW) 20:04:08 437.345
CUTE-I 28 Jul 19:59:05 20:03:53 33° 262° (W) 20:08:41 437.470
AIST 2 28 Jul 19:59:52 20:00:20 10° 107° (ESE) 20:00:48 435.215
GOMX 1 28 Jul 20:06:00 20:09:34 28° 263° (W) 20:13:14 467.674
ISS 28 Jul 20:15:20 20:18:13 30° 129° (SE) 20:21:07 145.825
NOAA 15 28 Jul 20:15:38 20:18:47 16° 265° (W) 20:21:57 137.62
STRAND 1 28 Jul 20:28:43 20:33:38 47° 100° (E) 20:38:31 437.568
AAUSAT CUBESAT 2 28 Jul 20:29:51 20:31:36 12° 69° (ENE) 20:33:21 437.432
CANX-2 28 Jul 20:38:20 20:42:32 57° 76° (ENE) 20:46:43 2200.000
CUBEBUG 2 28 Jul 20:45:54 20:49:14 20° 70° (ENE) 20:52:38 437.445
CUTE 1.7 + AOD 2 28 Jul 20:51:21 20:55:36 72° 78° (ENE) 20:59:52 437.475
Oscar 11 28 Jul 20:58:14 20:58:49 10° 67° (ENE) 20:59:24 145.826/435.025
YUBILEINY 28 Jul 20:59:41 21:07:33 35° 77° (ENE) 21:15:19 435.215
PCSat 28 Jul 21:04:17 21:07:31 16° 306° (NW) 21:10:47 145.827
HO-68 28 Jul 21:10:40 21:17:49 72° 257° (WSW) 21:25:01 435.675
PHONESAT 2.4 28 Jul 21:15:51 21:18:16 21° 17° (NNE) 21:20:40 2401.200-2431.200
CINEMA 3 28 Jul 21:26:17 21:30:19 34° 263° (W) 21:34:32 145.822/145.860
SEEDS 28 Jul 21:27:27 21:31:37 56° 260° (W) 21:35:46 437.485
O/OREOS (USA 219) 28 Jul 21:29:32 21:33:43 40° 292° (WNW) 21:37:55 437.305
AIST 2 28 Jul 21:34:24 21:38:20 46° 300° (WNW) 21:42:18 435.215
COMPASS 1 28 Jul 21:35:57 21:40:06 67° 259° (W) 21:44:15 437.405
Cosmos 2504 28 Jul 21:39:53 21:44:32 16° 70° (ENE) 21:49:00 435.465 / 435.565
M-CUBED/EXP-1 PRIME 28 Jul 21:46:02 21:47:53 13° 63° (ENE) 21:49:51 437.505
FUNcube-1 28 Jul 21:50:01 21:54:16 43° 74° (ENE) 21:58:36 145.935
ZACube-1 28 Jul 21:51:51 21:56:11 49° 75° (ENE) 22:00:37 437.345
ISS 28 Jul 21:52:24 21:54:40 17° 323° (NW) 21:56:56 145.825
UWE-3 28 Jul 21:55:03 21:59:35 88° 84° (E) 22:04:15 435.000/436.395/437.385
AAUSAT CUBESAT 2 28 Jul 22:02:49 22:06:42 38° 261° (W) 22:10:35 437.432
PRISM 28 Jul 22:05:08 22:09:13 67° 102° (ESE) 22:13:18 437.425
AUBIESAT-1 28 Jul 22:09:23 22:12:18 21° 65° (ENE) 22:15:23 437.475
STRAND 1 28 Jul 22:09:27 22:12:21 15° 293° (WNW) 22:15:14 437.568
DELFI C3 28 Jul 22:10:55 22:14:27 31° 74° (ENE) 22:17:58 145.870
Cosmos 2491 28 Jul 22:15:01 22:23:40 72° 93° (E) 22:32:19 435.465 / 435.565
CUBEBUG 2 28 Jul 22:21:39 22:25:35 29° 263° (W) 22:29:39 437.445
Oscar 11 28 Jul 22:30:12 22:34:25 52° 260° (W) 22:38:40 145.826/435.025
ANTELSAT 28 Jul 22:47:58 22:50:13 14° 93° (E) 22:52:28 437.575/2403.000
HUMSAT D 28 Jul 22:50:57 22:55:04 46° 75° (ENE) 22:59:12 437.325/437.525
PHONESAT 2.4 28 Jul 22:51:54 22:54:58 69° 212° (SSW) 22:58:00 2401.200-2431.200
YUBILEINY 28 Jul 22:56:13 23:04:14 41° 272° (W) 23:12:13 435.215
M-CUBED/EXP-1 PRIME 28 Jul 23:18:45 23:22:02 31° 258° (WSW) 23:25:35 437.505
AO-85 28 Jul 23:22:20 23:26:17 37° 58° (ENE) 23:29:59 145.980
TIGRISAT 28 Jul 23:27:21 23:31:38 39° 98° (E) 23:35:49 435.000
FUNcube-1 28 Jul 23:28:38 23:30:39 13° 267° (W) 23:32:39 145.935
Cosmos 2504 28 Jul 23:30:46 23:38:39 70° 267° (W) 23:45:59 435.465 / 435.565
ZACube-1 28 Jul 23:31:22 23:32:40 11° 268° (W) 23:33:58 437.345
AUBIESAT-1 28 Jul 23:43:55 23:46:39 19° 261° (W) 23:49:32 437.475
UNISAT 6 28 Jul 23:44:08 23:48:42 69° 101° (E) 23:53:09 437.425
DELFI C3 28 Jul 23:47:25 23:49:19 13° 266° (W) 23:51:13 145.870
ESTCUBE 1 28 Jul 23:57:06 00:01:19 42° 74° (ENE) 00:05:33 437.505/2401.250
CUBEBUG 1 29 Jul 00:02:35 00:06:19 30° 73° (ENE) 00:10:05 437.445
VELOX 1 29 Jul 00:06:18 00:10:03 29° 72° (ENE) 00:13:50 145.980
Cosmos 2491 29 Jul 00:15:33 00:21:09 18° 289° (WNW) 00:26:47 435.465 / 435.565
ANTELSAT 29 Jul 00:22:47 00:27:04 40° 286° (WNW) 00:31:14 437.575/2403.000
HUMSAT D 29 Jul 00:30:05 00:30:51 10° 267° (W) 00:31:36 437.325/437.525
NANOSAT C BR1 29 Jul 00:30:53 00:34:34 28° 97° (E) 00:38:12 145.865
DUCHIFAT 1 29 Jul 00:34:13 00:37:55 28° 98° (E) 00:41:34 145.980
50 SAT 29 Jul 00:36:58 00:40:37 78° 78° (ENE) 00:44:16 437.505
BUGSAT 1 29 Jul 00:42:12 00:44:26 14° 94° (E) 00:46:39 437.445
DX 1 29 Jul 00:43:45 00:47:59 60° 75° (ENE) 00:52:15 434.975-435.025
AISAT 29 Jul 00:50:40 00:55:01 73° 258° (WSW) 00:59:24 437.250
JUGNU 29 Jul 00:51:07 00:55:14 19° 166° (SSE) 00:59:22 437.505
UKube-1 29 Jul 00:53:47 00:58:01 61° 75° (ENE) 01:02:16 .
QB50P1 29 Jul 00:53:58 00:58:12 60° 100° (E) 01:02:24 145.935-145.965
POPSAT HIP 1 29 Jul 01:00:35 01:04:52 73° 102° (ESE) 01:09:07 437.405
AO-85 29 Jul 01:04:45 01:06:12 12° 254° (WSW) 01:07:37 145.980
TIGRISAT 29 Jul 01:05:24 01:07:55 15° 292° (WNW) 01:10:23 435.000
AIST 1 29 Jul 01:14:19 01:18:37 60° 83° (E) 01:22:56
QB50P2 29 Jul 01:22:07 01:26:18 54° 285° (WNW) 01:30:26 145.880/145.840
SPROUT 29 Jul 01:23:20 01:27:34 72° 258° (WSW) 01:31:52 437.525
POLYITAN 1 29 Jul 01:24:46 01:28:56 52° 285° (WNW) 01:33:04 437.675
JAS-2 29 Jul 01:32:11 01:37:25 44° 101° (E) 01:43:11 435.910
ESTCUBE 1 29 Jul 01:36:18 01:38:14 13° 266° (W) 01:40:12 437.505/2401.250
CUBEBUG 1 29 Jul 01:39:52 01:42:36 16° 265° (W) 01:45:21 437.445
VELOX 1 29 Jul 01:43:31 01:46:28 18° 264° (W) 01:49:28 145.980
NANOSAT C BR1 29 Jul 02:07:10 02:10:02 18° 290° (WNW) 02:12:53 145.865
DUCHIFAT 1 29 Jul 02:10:31 02:13:20 17° 290° (WNW) 02:16:07 145.980
TISAT 1 29 Jul 02:11:38 02:15:48 89° 79° (E) 02:20:02 437.305
BUGSAT 1 29 Jul 02:15:59 02:19:50 34° 287° (WNW) 02:23:41 437.445
ITUPSAT 1 29 Jul 02:18:01 02:21:00 17° 68° (ENE) 02:24:00 437.325
Cosmos 2499 29 Jul 02:26:32 02:30:42 15° 70° (ENE) 02:34:44 435.465 / 435.565
JUGNU 29 Jul 02:38:41 02:43:45 29° 175° (S) 02:48:48 437.505
GONETS M04 29 Jul 03:03:46 03:12:20 52° 80° (E) 03:20:52
Gurwin Techsat 1B 29 Jul 03:05:50 03:10:45 38° 99° (E) 03:15:39 435.225
SWISSCUBE 29 Jul 03:08:01 03:12:47 72° 76° (ENE) 03:17:34 437.505
Oscar 19 29 Jul 03:08:44 03:13:55 80° 285° (WNW) 03:19:06 437.125/150
SRMSAT 29 Jul 03:11:39 03:15:46 19° 166° (SSE) 03:19:52 437.500
ITAMSAT 1 29 Jul 03:11:52 03:12:59 11° 93° (E) 03:14:07 435.822/435.867
JAS-2 29 Jul 03:18:31 03:22:15 19° 291° (WNW) 03:26:12 435.910
BEESAT 29 Jul 03:29:09 03:33:55 74° 258° (WSW) 03:38:42 436.000
BEESAT 3 29 Jul 03:33:10 03:36:06 19° 56° (NE) 03:39:00 437.485
BEESAT 2 29 Jul 03:44:06 03:46:09 14° 53° (NE) 03:48:12 435.950
MOZHAYETS 4 29 Jul 03:53:21 03:56:42 20° 70° (ENE) 04:00:03
ITUPSAT 1 29 Jul 03:54:00 03:58:29 39° 261° (W) 04:02:58 437.325
AO-7 29 Jul 03:54:01 03:59:21 18° 95° (E) 04:04:39 29.400- 29.500
PCSat 29 Jul 04:13:50 04:16:50 15° 53° (NE) 04:19:48 145.827
Cosmos 2499 29 Jul 04:16:59 04:24:32 70° 267° (W) 04:31:37 435.465 / 435.565
ISS 29 Jul 04:23:31 04:26:24 29° 41° (NE) 04:29:17 145.825
CUSAT 1 29 Jul 04:25:18 04:29:49 74° 277° (W) 04:33:15 437.405
JUGNU 29 Jul 04:27:16 04:32:19 29° 185° (S) 04:37:21 437.505
KKS-1 29 Jul 04:39:25 04:43:47 66° 76° (ENE) 04:48:12 437.445
Gurwin Techsat 1B 29 Jul 04:46:33 04:50:23 21° 292° (WNW) 04:54:11 435.225
ITAMSAT 1 29 Jul 04:47:39 04:52:46 64° 285° (WNW) 04:57:51 435.822/435.867
SRMSAT 29 Jul 04:59:24 05:04:25 29° 175° (S) 05:09:25 437.500
GONETS M04 29 Jul 05:01:38 05:08:33 27° 275° (W) 05:15:29
DANDE 29 Jul 05:05:53 05:11:58 81° 277° (W) 05:16:27 436.750
BEESAT 3 29 Jul 05:10:27 05:13:41 24° 249° (WSW) 05:16:53 437.485
STARS 29 Jul 05:12:20 05:16:42 76° 76° (ENE) 05:21:06 437.465
CUBESAT XI-V 29 Jul 05:18:32 05:21:45 19° 70° (ENE) 05:24:57 437.345
RS-15 29 Jul 05:19:13 05:26:01 18° 100° (E) 05:32:57 29.354- 29.394
BEESAT 2 29 Jul 05:20:24 05:24:07 38° 247° (WSW) 05:27:48 435.950
MOZHAYETS 4 29 Jul 05:29:36 05:33:37 29° 262° (W) 05:37:39
AO-7 29 Jul 05:44:18 05:52:36 73° 289° (WNW) 06:00:51 29.400- 29.500
PCSat 29 Jul 05:55:16 06:00:36 62° 249° (WSW) 06:05:55 145.827
HORYU 2 29 Jul 06:00:23 06:04:27 34° 99° (E) 06:08:27 437.375
ISS 29 Jul 06:00:33 06:02:37 16° 234° (SW) 06:04:42 145.825
AIST 2 29 Jul 06:01:38 06:04:42 20° 55° (NE) 06:07:46 435.215
O/OREOS (USA 219) 29 Jul 06:08:35 06:09:39 11° 60° (ENE) 06:10:43 437.305
JUGNU 29 Jul 06:16:47 06:20:49 19° 195° (SSW) 06:24:49 437.505
GOMX 1 29 Jul 06:37:50 06:38:25 10° 93° (E) 06:38:59 467.674
CUTE-I 29 Jul 06:43:35 06:46:27 15° 94° (E) 06:49:19 437.470
SRMSAT 29 Jul 06:48:09 06:53:07 28° 186° (S) 06:58:06 437.500
CUBESAT XI-V 29 Jul 06:54:47 06:58:52 31° 263° (W) 07:02:56 437.345
NOAA 15 29 Jul 06:55:11 06:59:39 28° 98° (E) 07:04:07 137.62
BRITE-PL 29 Jul 07:20:31 07:25:34 76° 101° (ESE) 07:30:59 437.365/2234.400
RS-15 29 Jul 07:25:25 07:36:44 87° 295° (WNW) 07:48:46 29.354- 29.394
NOAA 18 29 Jul 07:36:13 07:41:38 53° 101° (E) 07:46:58 137.9125
HORYU 2 29 Jul 07:37:54 07:40:40 16° 291° (WNW) 07:43:26 437.375
STRAND 1 29 Jul 07:38:56 07:43:39 38° 72° (ENE) 07:48:23 437.568
AIST 2 29 Jul 07:39:36 07:43:08 27° 249° (WSW) 07:46:41 435.215
AO-7 29 Jul 07:41:11 07:43:56 12° 306° (NW) 07:46:41 29.400- 29.500
O/OREOS (USA 219) 29 Jul 07:44:54 07:49:20 55° 254° (WSW) 07:53:48 437.305
DOVE 4 29 Jul 07:53:49 07:58:32 33° 97° (E) 08:03:16 437.250
SO-50 29 Jul 07:54:53 07:59:41 62° 115° (ESE) 08:04:29 436.795
Cubesat XI-IV 29 Jul 07:58:26 08:03:48 88° 283° (WNW) 08:09:07 437.490
LilacSat-2 29 Jul 08:05:19 08:09:03 51° 284° (WNW) 08:12:45 437.200
GOMX 1 29 Jul 08:11:30 08:16:42 72° 283° (WNW) 08:22:08 467.674
CUTE-I 29 Jul 08:21:34 08:26:42 51° 286° (WNW) 08:31:48 437.470
CANX-2 29 Jul 08:30:30 08:32:56 15° 94° (E) 08:35:22 2200.000
Cosmos 2491 29 Jul 08:33:32 08:40:37 27° 74° (ENE) 08:47:40 435.465 / 435.565
NOAA 15 29 Jul 08:34:53 08:39:16 27° 290° (WNW) 08:43:40 137.62
SRMSAT 29 Jul 08:37:50 08:41:45 18° 195° (SSW) 08:45:41 437.500
CUTE 1.7 + AOD 2 29 Jul 08:43:00 08:45:58 19° 95° (E) 08:48:54 437.475
HO-68 29 Jul 08:45:23 08:51:36 31° 98° (E) 08:57:45 435.675
PRISM 29 Jul 08:49:40 08:52:45 21° 71° (ENE) 08:55:51 437.425
SEEDS 29 Jul 09:17:13 09:21:01 34° 98° (E) 09:24:47 437.485
NOAA 18 29 Jul 09:18:30 09:21:46 16° 295° (WNW) 09:25:02 137.9125
STRAND 1 29 Jul 09:19:19 09:22:52 19° 265° (W) 09:26:26 437.568
COMPASS 1 29 Jul 09:24:51 09:28:24 28° 97° (E) 09:31:58 437.405
CINEMA 3 29 Jul 09:25:59 09:31:02 89° 92° (E) 09:35:57 145.822/145.860
DOVE 4 29 Jul 09:31:51 09:35:58 24° 289° (WNW) 09:40:07 437.250
SO-50 29 Jul 09:38:08 09:40:32 13° 310° (NW) 09:42:56 436.795
RS-15 29 Jul 09:42:29 09:51:03 23° 319° (NW) 10:00:00 29.354- 29.394
FUNcube-1 29 Jul 09:45:52 09:47:48 13° 93° (E) 09:49:43 145.935
ZACube-1 29 Jul 09:47:38 09:50:07 15° 94° (E) 09:52:34 437.345
AAUSAT CUBESAT 2 29 Jul 09:50:30 09:54:28 47° 100° (E) 09:58:25 437.432
UWE-3 29 Jul 09:51:12 09:55:05 28° 96° (E) 09:58:51 435.000/436.395/437.385
YUBILEINY 29 Jul 09:52:46 10:01:02 48° 89° (E) 10:09:22 435.215
CANX-2 29 Jul 10:05:06 10:08:47 30° 287° (WNW) 10:12:28 2200.000
Cosmos 2504 29 Jul 10:10:26 10:15:59 19° 82° (E) 10:21:31 435.465 / 435.565
CUBEBUG 2 29 Jul 10:17:41 10:22:21 86° 288° (WNW) 10:26:52 437.445
CUTE 1.7 + AOD 2 29 Jul 10:18:16 10:21:43 25° 288° (WNW) 10:25:08 437.475
TIGRISAT 29 Jul 10:20:57 10:24:08 19° 69° (ENE) 10:27:21 435.000
Oscar 11 29 Jul 10:23:08 10:27:14 42° 99° (E) 10:31:17 145.826/435.025
PRISM 29 Jul 10:24:50 10:27:55 21° 263° (W) 10:31:00 437.425
Cosmos 2491 29 Jul 10:29:17 10:37:40 53° 270° (W) 10:46:06 435.465 / 435.565
HO-68 29 Jul 10:32:41 10:39:15 40° 292° (WNW) 10:45:47 435.675
UNISAT 6 29 Jul 10:37:10 10:41:11 30° 72° (ENE) 10:45:16 437.425
HUMSAT D 29 Jul 10:42:35 10:43:49 11° 93° (E) 10:45:02 437.325/437.525
SEEDS 29 Jul 10:54:15 10:56:22 14° 291° (WNW) 10:58:27 437.485
COMPASS 1 29 Jul 11:01:08 11:03:42 16° 290° (WNW) 11:06:15 437.405
M-CUBED/EXP-1 PRIME 29 Jul 11:02:51 11:07:00 30° 101° (ESE) 11:11:02 437.505
ANTELSAT 29 Jul 11:14:51 11:19:27 86° 76° (ENE) 11:24:10 437.575/2403.000
FUNcube-1 29 Jul 11:20:04 11:24:10 39° 286° (WNW) 11:28:11 145.935
NANOSAT C BR1 29 Jul 11:20:26 11:20:58 10° 67° (ENE) 11:21:30 145.865
ZACube-1 29 Jul 11:22:27 11:26:28 34° 287° (WNW) 11:30:23 437.345
DUCHIFAT 1 29 Jul 11:23:23 11:24:03 10° 67° (ENE) 11:24:42 145.980
AUBIESAT-1 29 Jul 11:26:35 11:31:03 46° 103° (ESE) 11:35:23 437.475
UWE-3 29 Jul 11:28:01 11:31:18 20° 290° (WNW) 11:34:30 435.000/436.395/437.385
DELFI C3 29 Jul 11:28:18 11:32:12 66° 283° (WNW) 11:36:06 145.870
QB50P1 29 Jul 11:41:25 11:44:37 21° 71° (ENE) 11:47:50 145.935-145.965
POPSAT HIP 1 29 Jul 11:47:49 11:51:16 25° 72° (ENE) 11:54:45 437.405
YUBILEINY 29 Jul 11:50:37 11:57:57 29° 285° (WNW) 12:05:22 435.215
TIGRISAT 29 Jul 11:56:24 12:00:31 32° 263° (W) 12:04:42 435.000
ESTCUBE 1 29 Jul 11:56:45 11:59:08 14° 95° (E) 12:01:30 437.505/2401.250
Cosmos 2504 29 Jul 11:59:34 12:08:22 75° 276° (W) 12:17:15 435.465 / 435.565
Oscar 11 29 Jul 12:01:15 12:02:55 12° 292° (WNW) 12:04:35 145.826/435.025
QB50P2 29 Jul 12:08:39 12:12:45 50° 75° (ENE) 12:16:53 145.880/145.840
POLYITAN 1 29 Jul 12:11:16 12:15:23 51° 75° (ENE) 12:19:32 437.675
UNISAT 6 29 Jul 12:14:33 12:17:51 19° 265° (W) 12:21:12 437.425
HUMSAT D 29 Jul 12:15:41 12:19:34 39° 286° (WNW) 12:23:23 437.325/437.525
M-CUBED/EXP-1 PRIME 29 Jul 12:37:38 12:41:14 22° 294° (WNW) 12:44:48 437.505
DX 1 29 Jul 12:38:46 12:41:34 17° 96° (E) 12:44:21 434.975-435.025
AISAT 29 Jul 12:46:44 12:50:45 33° 98° (E) 12:54:46 437.250
UKube-1 29 Jul 12:47:48 12:50:31 16° 96° (E) 12:53:12 .
NANOSAT C BR1 29 Jul 12:52:07 12:56:12 49° 260° (W) 13:00:19 145.865
DUCHIFAT 1 29 Jul 12:55:10 12:59:14 48° 260° (W) 13:03:20 145.980
BUGSAT 1 29 Jul 12:59:21 13:03:23 71° 78° (ENE) 13:07:30 437.445
AUBIESAT-1 29 Jul 13:02:30 13:05:01 15° 297° (WNW) 13:07:32 437.475
SPROUT 29 Jul 13:15:19 13:19:07 29° 98° (E) 13:22:51 437.525
QB50P1 29 Jul 13:16:51 13:20:13 23° 263° (W) 13:23:37 145.935-145.965
JAS-2 29 Jul 13:22:58 13:29:14 89° 60° (ENE) 13:34:47 435.910
POPSAT HIP 1 29 Jul 13:23:52 13:26:56 19° 264° (W) 13:30:03 437.405
AO-85 29 Jul 13:29:18 13:34:36 58° 114° (ESE) 13:39:47 145.980
ESTCUBE 1 29 Jul 13:31:52 13:36:00 38° 287° (WNW) 13:40:09 437.505/2401.250
CUBEBUG 1 29 Jul 13:32:14 13:36:34 58° 284° (WNW) 13:40:55 437.445
AIST 1 29 Jul 13:37:35 13:41:38 45° 93° (E) 13:45:41
VELOX 1 29 Jul 13:37:37 13:42:00 61° 285° (WNW) 13:46:22 145.980
50 SAT 29 Jul 13:44:53 13:48:09 33° 285° (WNW) 13:51:23 437.505
Cosmos 2504 29 Jul 14:00:56 14:03:01 11° 293° (WNW) 14:05:08 435.465 / 435.565
TISAT 1 29 Jul 14:01:58 14:05:14 21° 97° (E) 14:08:28 437.305
DX 1 29 Jul 14:13:53 14:17:44 31° 288° (WNW) 14:21:36 434.975-435.025
Oscar 19 29 Jul 14:19:42 14:24:48 83° 76° (ENE) 14:29:56 437.125/150
Gurwin Techsat 1B 29 Jul 14:21:19 14:26:05 35° 71° (ENE) 14:30:51 435.225
UKube-1 29 Jul 14:22:44 14:26:32 31° 288° (WNW) 14:30:21 .
RS-15 29 Jul 14:24:01 14:31:34 18° 35° (NE) 14:39:04 29.354- 29.394
AISAT 29 Jul 14:24:03 14:26:55 17° 291° (WNW) 14:29:47 437.250
ITAMSAT 1 29 Jul 14:25:43 14:26:03 10° 64° (ENE) 14:26:22 435.822/435.867
AO-7 29 Jul 14:48:13 14:52:59 17° 57° (ENE) 14:57:44 29.400- 29.500
SPROUT 29 Jul 14:51:57 14:54:46 17° 290° (WNW) 14:57:35 437.525
Cosmos 2499 29 Jul 14:55:18 15:00:39 18° 82° (E) 15:05:55 435.465 / 435.565
CUSAT 1 29 Jul 15:02:36 15:05:45 31° 83° (E) 15:09:40 437.405
AO-85 29 Jul 15:11:59 15:15:22 17° 307° (NW) 15:18:42 145.980
SWISSCUBE 29 Jul 15:14:28 15:18:33 28° 98° (E) 15:22:37 437.505
PHONESAT 2.4 29 Jul 15:18:42 15:21:27 30° 144° (SE) 15:24:11 2401.200-2431.200
BEESAT 29 Jul 15:35:10 15:39:42 44° 100° (E) 15:44:12 436.000
TISAT 1 29 Jul 15:37:24 15:40:44 23° 289° (WNW) 15:44:04 437.305
DANDE 29 Jul 15:50:19 15:52:48 27° 82° (E) 15:55:41 436.750
GONETS M04 29 Jul 15:57:07 16:05:44 72° 92° (E) 16:14:23
ITAMSAT 1 29 Jul 15:59:36 16:04:48 76° 257° (WSW) 16:10:02 435.822/435.867
ITUPSAT 1 29 Jul 15:59:51 16:04:38 85° 102° (ESE) 16:09:23 437.325
Gurwin Techsat 1B 29 Jul 16:01:59 16:06:00 22° 264° (W) 16:10:03 435.225
SO-50 29 Jul 16:34:02 16:36:00 12° 50° (NE) 16:37:56 436.795
RS-15 29 Jul 16:34:42 16:47:01 66° 60° (ENE) 16:59:00 29.354- 29.394
AO-7 29 Jul 16:36:15 16:44:38 88° 254° (WSW) 16:53:03 29.400- 29.500
KKS-1 29 Jul 16:36:54 16:40:14 20° 96° (E) 16:43:32 437.445
Cosmos 2499 29 Jul 16:43:55 16:52:48 77° 277° (W) 17:01:33 435.465 / 435.565
CUSAT 1 29 Jul 16:47:17 16:47:41 10° 264° (W) 16:48:05 437.405
SWISSCUBE 29 Jul 16:52:32 16:56:07 22° 290° (WNW) 16:59:42 437.505
HORYU 2 29 Jul 16:53:52 16:56:39 16° 69° (ENE) 16:59:25 437.375
PHONESAT 2.4 29 Jul 16:55:07 16:57:55 31° 338° (NNW) 17:00:43 2401.200-2431.200
STARS 29 Jul 17:08:11 17:11:37 22° 97° (E) 17:15:02 437.465
BEESAT 29 Jul 17:14:32 17:17:03 14° 293° (WNW) 17:19:34 436.000
BEESAT 3 29 Jul 17:19:43 17:21:23 12° 108° (ESE) 17:23:03 437.485
MOZHAYETS 4 29 Jul 17:29:39 17:34:13 80° 283° (WNW) 17:38:45
GONETS M04 29 Jul 17:57:36 18:03:12 18° 289° (WNW) 18:08:51
CUTE-I 29 Jul 18:00:14 18:03:08 15° 66° (ENE) 18:06:02 437.470
NOAA 15 29 Jul 18:09:56 18:14:10 25° 69° (ENE) 18:18:24 137.62
SO-50 29 Jul 18:12:21 18:16:49 57° 246° (WSW) 18:21:09 436.795
KKS-1 29 Jul 18:12:57 18:16:42 27° 289° (WNW) 18:20:27 437.445
BRITE-PL 29 Jul 18:26:50 18:30:42 39° 75° (ENE) 18:34:35 437.365/2234.400
HORYU 2 29 Jul 18:28:47 18:32:51 34° 261° (W) 18:36:58 437.375
PHONESAT 2.4 29 Jul 18:33:26 18:35:00 13° 354° (N) 18:36:34 2401.200-2431.200
AO-7 29 Jul 18:34:48 18:38:07 13° 267° (W) 18:41:28 29.400- 29.500
